Newark, NJ

7:26 AM EST on February 24, 2018 (GMT -0500)
Newark International

Weather History for KEWR - March, 2012

Change the Weather History Date:

Wednesday, March 14, 2012

  Actual Average Record
Temperature  
Mean Temperature 63 °F 41 °F  
Max Temperature 73 °F 50 °F 79 °F (2007)
Min Temperature 53 °F 33 °F 17 °F (1932)
Degree Days  
Heating Degree Days 2 24  
Month to date heating degree days 233 358  
Since 1 July heating degree days 3143 3993  
Cooling Degree Days 0 0  
Month to date cooling degree days 0 0  
Year to date cooling degree days 0 0  
Growing Degree Days 15 (Base 50)    
Moisture  
Dew Point 28 °F    
Average Humidity 45    
Maximum Humidity 80    
Minimum Humidity 9    
Precipitation  
Precipitation 0.00 in 0.13 in 1.15 in (2017)
Month to date precipitation 0.46 1.75  
Year to date precipitation 4.68 8.17  
Snow  
Snow 0.00 in 0.20 in 7.00 in (2017)
Month to date snowfall 0.0 2.8  
Since 1 July snowfall 8.8 25.8  
Snow Depth 0.00 in    
Sea Level Pressure  
Sea Level Pressure 30.09 in    
Wind  
Wind Speed 9 mph (WNW)    
Max Wind Speed 23 mph    
Max Gust Speed 32 mph    
Visibility 10 miles    
Events      
T = Trace of Precipitation, MM = Missing Value Source: NWS Daily Summary

Daily Weather History Graph

Daily Weather History Graph

Search for Another Location

Airport or City:

Trip Planner

Search our weather history database for the weather conditions in past years. The results will help you decide how hot, cold, wet, or windy it might be!

Date:

Astronomy

Mar. 14, 2012 Rise Set
Actual Time 7:09 AM EDT 7:02 PM EDT
Civil Twilight 6:41 AM EDT 7:30 PM EDT
Nautical Twilight 6:10 AM EDT 8:01 PM EDT
Astronomical Twilight 5:38 AM EDT 8:34 PM EDT
Moon 1:37 AM EDT (3/14) 11:15 AM EDT (3/14)
Length of Visible Light 12h 48m
Length of Day
11h 53m
Waning Gibbous, 54% of the Moon is Illuminated
Mar 14
Waning Gibbous
Mar 14
Last Quarter
Mar 22
New
Mar 30
First Quarter
Apr 6
Full

Hourly Weather History & Observations

Time (EDT) Temp. Dew Point Humidity Pressure Visibility Wind Dir Wind Speed Gust Speed Precip Events Conditions
12:51 AM 62.1 °F 52.0 °F 70% 29.97 in 10.0 mi SW 6.9 mph - N/A   Clear
1:51 AM 60.1 °F 52.0 °F 75% 29.98 in 10.0 mi SW 8.1 mph - N/A   Clear
2:51 AM 57.9 °F 51.1 °F 78% 29.98 in 10.0 mi SW 5.8 mph - N/A   Clear
3:51 AM 57.9 °F 50.0 °F 75% 30.00 in 10.0 mi NW 8.1 mph - N/A   Clear
4:51 AM 60.1 °F 42.1 °F 51% 30.01 in 10.0 mi NNW 6.9 mph - N/A   Clear
5:51 AM 57.9 °F 41.0 °F 53% 30.04 in 10.0 mi Calm Calm - N/A   Clear
6:51 AM 59.0 °F 41.0 °F 51% 30.08 in 10.0 mi NW 5.8 mph - N/A   Clear
7:51 AM 59.0 °F 39.2 °F 48% 30.11 in 10.0 mi NNW 10.4 mph - N/A   Partly Cloudy
8:51 AM 61.0 °F 39.0 °F 44% 30.13 in 10.0 mi NNW 6.9 mph - N/A   Partly Cloudy
9:51 AM 63.0 °F 28.9 °F 28% 30.14 in 10.0 mi NW 12.7 mph 19.6 mph N/A   Partly Cloudy
10:51 AM 64.9 °F 28.0 °F 25% 30.14 in 10.0 mi NW 12.7 mph - N/A   Partly Cloudy
11:51 AM 68.0 °F 26.1 °F 21% 30.13 in 10.0 mi WNW 12.7 mph 23.0 mph N/A   Partly Cloudy
12:51 PM 69.1 °F 25.0 °F 19% 30.12 in 10.0 mi NW 12.7 mph - N/A   Partly Cloudy
1:51 PM 71.1 °F 21.0 °F 15% 30.10 in 10.0 mi WNW 12.7 mph 27.6 mph N/A   Scattered Clouds
2:51 PM 73.0 °F 15.1 °F 11% 30.09 in 10.0 mi WNW 18.4 mph 23.0 mph N/A   Scattered Clouds
3:51 PM 72.0 °F 10.9 °F 10% 30.09 in 10.0 mi WNW 17.3 mph 32.2 mph N/A   Scattered Clouds
4:51 PM 72.0 °F 8.1 °F 8% 30.09 in 10.0 mi WNW 11.5 mph 23.0 mph N/A   Partly Cloudy
5:51 PM 71.1 °F 8.1 °F 9% 30.10 in 10.0 mi NW 13.8 mph - N/A   Partly Cloudy
6:51 PM 69.8 °F 12.2 °F 11% 30.11 in 10.0 mi NW 9.2 mph - N/A   Partly Cloudy
7:51 PM 66.0 °F 14.0 °F 13% 30.13 in 10.0 mi NW 8.1 mph - N/A   Partly Cloudy
8:51 PM 64.0 °F 15.1 °F 15% 30.15 in 10.0 mi WNW 3.5 mph - N/A   Partly Cloudy
9:51 PM 62.1 °F 18.0 °F 18% 30.16 in 10.0 mi Calm Calm - N/A   Clear
10:51 PM 62.6 °F 19.4 °F 19% 30.17 in 10.0 mi Calm Calm - N/A   Clear
11:51 PM 57.9 °F 21.9 °F 25% 30.18 in 10.0 mi Calm Calm - N/A   Scattered Clouds